Hourly Data Report for October 12, 2016

All times are specified in Local Standard Time (LST). Add 1 hour to adjust for Daylight Saving Time where and when it is observed.

OTTAWA INTL A
ONTARIO

45°19'00.000" N
75°40'00.000" W
114.90 m
6106001
71628
YOW

Download Data

Hourly Data (October 2016)
Hourly Data Report for October 12, 2016
Temp Definition
°C
Dew Point Temp Definition
°C
Rel Hum Definition
%
Wind Dir Definition
10's deg

Wind Spd Definition
km/h
Visibility Definition
km
Stn Press Definition
kPa
Hmdx Definition


Wind Chill Definition


Weather Definition


TIME
00:00 Legend Double Dagger 11.4 4.9 64 13 15 24.1 101.10     LegendNANA
01:00 Legend Double Dagger 10.8 4.5 65 15 12 24.1 101.08     Cloudy
02:00 Legend Double Dagger 8.4 4.1 74 16 12 24.1 101.03     LegendNANA
03:00 Legend Double Dagger 8.0 3.5 73 14 9 24.1 101.01     LegendNANA
04:00 Legend Double Dagger 7.5 3.4 75 15 16 24.1 100.95     Mainly Clear
05:00 Legend Double Dagger 7.2 3.1 75 14 9 24.1 100.94     LegendNANA
06:00 Legend Double Dagger 5.0 2.2 82 10 9 24.1 100.95     LegendNANA
07:00 Legend Double Dagger 5.2 3.1 86 9 4 24.1 100.98     Mainly Clear
08:00 Legend Double Dagger 9.8 4.6 70 14 9 24.1 100.98     LegendNANA
09:00 Legend Double Dagger 13.5 6.0 60 19 17 24.1 100.95     LegendNANA
10:00 Legend Double Dagger 15.9 7.7 58 19 16 24.1 100.87     Mainly Clear
11:00 Legend Double Dagger 17.6 6.9 49 17 14 24.1 100.79     LegendNANA
12:00 Legend Double Dagger 18.4 7.3 48 16 20 24.1 100.69     LegendNANA
13:00 Legend Double Dagger 18.8 7.1 46 18 21 24.1 100.60     Mainly Clear
14:00 Legend Double Dagger 19.8 7.7 45 17 23 24.1 100.50     LegendNANA
15:00 Legend Double Dagger 19.8 8.0 46 17 20 24.1 100.45     LegendNANA
16:00 Legend Double Dagger 19.6 8.1 47 19 22 24.1 100.40     Mainly Clear
17:00 Legend Double Dagger 17.8 7.9 52 18 15 24.1 100.38     LegendNANA
18:00 Legend Double Dagger 15.9 8.5 61 19 9 24.1 100.38     LegendNANA
19:00 Legend Double Dagger 13.2 8.1 71 15 10 24.1 100.32     Mainly Clear
20:00 Legend Double Dagger 13.3 8.8 74 14 15 24.1 100.26     LegendNANA
21:00 Legend Double Dagger 14.0 8.9 71 16 17 24.1 100.17     LegendNANA
22:00 Legend Double Dagger 15.0 9.2 68 17 18 24.1 100.13     Mostly Cloudy
23:00 Legend Double Dagger 15.4 8.9 65 18 22 24.1 100.04     LegendNANA

Notes on Data Quality.

Legend

  • E = Estimated
  • M = Missing
  • NA = Not Available
  • ‡ = Partner data that is not subject to review by the National Climate Archives
Date modified: